Date String (YYYY-MM-DD hh:mm:ss) UTC,Instrument flags,absolute air pressure of the measurement (hPa),sample flow rate (lpm),inlet stack bypass flow (lpm),air temperature of the measurement (°C),ambient temperature measured by the external sensor (°C),aerosol sample conditioner tube jacket temperature (°C),OPC LED temperature (°C),internal box temperature (°C),relative humidity of the measurement (%),span deviation,mass concentration of particles derived from Lorenz-Mie calculation of OPC scattering (μg/m³),mass concentration of particles derived from Lorenz-Mie calculation of OPC scattering (μg/m³),mass concentration of particles derived from Lorenz-Mie calculation of OPC scattering (μg/m³)
DateTimeUTC,F1_M11,P_M11,Q1_M11,Q2_M11,T1_M11,T2_M11,T3_M11,T4_M11,T5_M11,U1_M11,ZSPAN_M11,X0_M11,X2_M11,X1_M11
2023-07-17 09:00:00,SystemResetWarning,0833.5,5.00,000.00,029.3,027.7,000.0,037.8,030.9,18.3,0001.0,0012.29,0005.38,0004.90
2023-07-17 09:01:00,SystemResetWarning,0833.5,5.00,000.00,029.3,027.8,000.0,037.8,030.9,18.5,0000.5,0012.27,0005.22,0004.76
2023-07-17 09:02:00,SystemResetWarning,0833.6,5.00,000.00,029.4,027.9,000.0,037.8,031.0,18.6,0000.0,0011.84,0005.10,0004.62
2023-07-17 09:03:00,SystemResetWarning,0833.6,5.00,000.00,029.4,028.1,000.0,037.9,031.0,18.6,0000.0,0011.80,0004.97,0004.51
2023-07-17 09:04:00,SystemResetWarning,0833.6,5.00,000.00,029.4,028.1,000.0,037.9,031.0,18.8,0000.0,0011.22,0004.86,0004.40
2023-07-17 09:05:00,SystemResetWarning,0833.6,5.00,000.00,029.5,028.2,000.0,037.9,031.1,18.7,0000.0,0011.00,0004.83,0004.36
2023-07-17 09:06:00,SystemResetWarning,0833.6,5.00,000.00,029.5,028.3,000.0,037.9,031.1,18.7,0000.0,0010.50,0004.79,0004.31
2023-07-17 09:07:00,SystemResetWarning,0833.6,5.00,000.00,029.5,028.4,000.0,037.9,031.2,19.0,0000.0,0010.17,0004.73,0004.27
2023-07-17 09:08:00,SystemResetWarning,0833.7,5.00,000.00,029.6,028.4,000.0,038.0,031.2,19.1,0000.0,0009.65,0004.67,0004.22
2023-07-17 09:09:00,SystemResetWarning,0833.7,5.00,000.00,029.6,028.5,000.0,038.0,031.2,19.3,0000.0,0009.00,0004.61,0004.17
2023-07-17 09:10:00,SystemResetWarning,0833.7,5.00,000.00,029.6,028.5,000.0,038.0,031.2,19.4,0000.0,0008.69,0004.58,0004.14
2023-07-17 09:11:00,SystemResetWarning,0833.7,4.99,000.00,029.6,027.8,000.0,038.0,031.2,20.1,0000.0,0008.79,0004.58,0004.13
2023-07-17 09:12:00,SystemResetWarning,0833.6,5.00,000.00,029.6,025.9,000.0,037.9,030.9,21.4,0000.0,0009.02,0004.55,0004.12
2023-07-17 09:13:00,SystemResetWarning,0833.5,5.01,000.00,029.5,025.4,000.0,037.8,030.8,21.6,0000.0,0008.74,0004.54,0004.13
2023-07-17 09:14:00,SystemResetWarning,0833.4,5.01,000.00,029.4,025.6,000.0,037.8,030.6,22.1,0000.0,0008.44,0004.57,0004.15
2023-07-17 09:15:00,SystemResetWarning,0833.5,4.99,000.00,029.3,025.9,000.0,037.8,030.6,21.8,0000.0,0008.47,0004.59,0004.17
2023-07-17 09:16:00,SystemResetWarning,0833.5,5.00,000.00,029.3,026.3,000.0,037.8,030.7,22.0,0000.0,0008.41,0004.60,0004.20
2023-07-17 09:17:00,SystemResetWarning,0833.5,5.00,000.00,029.3,026.7,000.0,037.8,030.7,21.6,0000.0,0008.50,0004.65,0004.25
2023-07-17 09:18:00,SystemResetWarning,0833.5,5.00,000.00,029.3,027.0,000.0,037.8,030.8,21.4,0000.6,0008.58,0004.73,0004.32
2023-07-17 09:19:00,SystemResetWarning,0833.5,5.00,000.00,029.3,027.3,000.0,037.8,030.8,21.2,0001.3,0008.44,0004.78,0004.37
2023-07-17 09:20:00,SystemResetWarning,0833.5,5.01,000.00,029.3,027.5,000.0,037.8,030.9,21.3,0000.3,0008.51,0004.84,0004.42
2023-07-17 09:21:00,SystemResetWarning,0833.5,4.99,000.00,029.3,027.6,000.0,037.9,030.9,21.6,-000.1,0008.58,0004.89,0004.46
2023-07-17 09:22:00,SystemResetWarning,0833.6,4.98,000.00,029.4,027.8,000.0,037.9,030.9,21.8,-000.0,0008.89,0004.97,0004.52
2023-07-17 09:23:00,SystemResetWarning,0833.6,4.99,000.00,029.4,027.9,000.0,037.9,031.0,21.8,0000.2,0009.15,0005.13,0004.64
2023-07-17 09:24:00,SystemResetWarning,0833.5,5.00,000.00,029.4,028.0,000.0,037.9,031.0,21.9,-000.2,0009.70,0005.30,0004.78
2023-07-17 09:25:00,SystemResetWarning,0833.5,5.01,000.00,029.4,028.1,000.0,037.9,031.0,22.2,0000.2,0009.98,0005.44,0004.93
2023-07-17 09:26:00,SystemResetWarning,0833.5,5.00,000.00,029.5,028.2,000.0,037.9,031.1,22.3,0000.5,0010.20,0005.54,0005.04
2023-07-17 09:27:00,SystemResetWarning,0833.5,5.00,000.00,029.5,028.2,000.0,037.9,031.1,22.2,0000.6,0010.61,0005.67,0005.15
2023-07-17 09:28:00,SystemResetWarning,0833.5,5.00,000.00,029.5,028.3,000.0,037.9,031.1,22.1,0001.1,0010.96,0005.80,0005.24
2023-07-17 09:29:00,SystemResetWarning,0833.5,4.99,000.00,029.5,028.3,000.0,037.9,031.2,22.0,0000.6,0011.06,0005.89,0005.31
2023-07-17 09:30:00,SystemResetWarning,0833.4,4.99,000.00,029.6,028.4,000.0,038.0,031.2,21.7,0000.1,0011.13,0005.96,0005.40
2023-07-17 09:31:00,SystemResetWarning,0833.4,5.00,000.00,029.6,028.4,000.0,038.0,031.2,21.8,0000.0,0011.69,0006.08,0005.49
2023-07-17 09:32:00,SystemResetWarning,0833.4,5.01,000.00,029.6,028.5,000.0,038.0,031.2,21.6,0000.1,0012.28,0006.18,0005.60
2023-07-17 09:33:00,SystemResetWarning,0833.4,5.01,000.00,029.7,028.5,000.0,038.0,031.3,21.7,0000.2,0012.73,0006.27,0005.66
2023-07-17 09:34:00,SystemResetWarning,0833.4,5.01,000.00,029.7,028.5,000.0,038.1,031.3,21.8,0000.5,0012.91,0006.28,0005.69
2023-07-17 09:35:00,SystemResetWarning,0833.4,5.01,000.00,029.7,028.6,000.0,038.1,031.3,21.7,0000.6,0012.53,0006.30,0005.72
2023-07-17 09:36:00,SystemResetWarning,0833.4,5.00,000.00,029.7,028.5,000.0,038.1,031.3,21.6,0000.2,0012.50,0006.34,0005.74
2023-07-17 09:37:00,SystemResetWarning,0833.4,4.98,000.00,029.7,027.0,000.0,038.0,031.2,21.5,0000.2,0012.48,0006.38,0005.79
2023-07-17 09:38:00,SystemResetWarning,0833.4,5.01,000.00,029.6,025.5,000.0,037.9,030.9,21.5,0000.0,0012.45,0006.43,0005.83
2023-07-17 09:39:00,SystemResetWarning,0833.4,5.01,000.00,029.5,025.4,000.0,037.8,030.7,21.4,0000.0,0012.27,0006.46,0005.88
2023-07-17 09:40:00,SystemResetWarning,0833.4,5.00,000.00,029.4,025.7,000.0,037.9,030.6,21.2,-000.2,0012.32,0006.52,0005.95
2023-07-17 09:41:00,SystemResetWarning,0833.4,5.00,000.00,029.4,026.1,000.0,037.9,030.7,21.7,0000.6,0012.57,0006.62,0006.02
2023-07-17 09:42:00,SystemResetWarning,0833.4,5.00,000.00,029.4,026.5,000.0,037.9,030.7,21.8,0000.9,0013.42,0006.68,0006.09
2023-07-17 09:43:00,SystemResetWarning,0833.5,5.00,000.00,029.4,026.8,000.0,037.9,030.8,21.7,0000.9,0013.02,0006.77,0006.14
2023-07-17 09:44:00,SystemResetWarning,0833.5,5.00,000.00,029.4,027.1,000.0,037.9,030.8,21.5,0001.1,0012.72,0006.82,0006.20
2023-07-17 09:45:00,SystemResetWarning,0833.5,5.00,000.00,029.4,027.4,000.0,037.9,030.9,21.6,0000.9,0012.23,0006.86,0006.24
2023-07-17 09:46:00,SystemResetWarning,0833.6,4.99,000.00,029.4,027.6,000.0,037.9,030.9,21.5,0000.5,0012.26,0006.91,0006.27
2023-07-17 09:47:00,SystemResetWarning,0833.6,4.99,000.00,029.4,027.8,000.0,037.9,031.0,21.4,0000.7,0012.17,0006.90,0006.28
2023-07-17 09:48:00,SystemResetWarning,0833.6,5.00,000.00,029.4,027.9,000.0,037.9,031.0,21.4,0000.5,0012.26,0006.94,0006.29
2023-07-17 09:49:00,SystemResetWarning,0833.6,5.00,000.00,029.5,028.0,000.0,037.9,031.0,21.4,0000.4,0012.29,0006.94,0006.29
2023-07-17 09:50:00,SystemResetWarning,0833.6,5.01,000.00,029.5,028.1,000.0,038.0,031.1,21.4,0000.2,0012.88,0006.94,0006.29
2023-07-17 09:51:00,SystemResetWarning,0833.6,5.01,000.00,029.5,028.2,000.0,038.0,031.1,21.4,0000.5,0013.47,0006.91,0006.28
2023-07-17 09:52:00,SystemResetWarning,0833.6,5.01,000.00,029.5,028.3,000.0,038.0,031.2,21.4,0000.5,0013.73,0006.86,0006.26
2023-07-17 09:53:00,SystemResetWarning,0833.6,5.00,000.00,029.6,028.3,000.0,038.0,031.2,21.4,0000.3,0013.10,0006.88,0006.26
2023-07-17 09:54:00,SystemResetWarning,0833.6,5.00,000.00,029.6,028.4,000.0,038.0,031.2,21.5,-000.2,0013.17,0006.85,0006.26
2023-07-17 09:55:00,SystemResetWarning,0833.7,4.99,000.00,029.6,028.4,000.0,038.0,031.2,21.5,-000.1,0012.96,0006.79,0006.24
2023-07-17 09:56:00,SystemResetWarning,0833.6,4.99,000.00,029.7,028.5,000.0,038.0,031.2,21.5,0000.1,0012.91,0006.77,0006.22
2023-07-17 09:57:00,SystemResetWarning,0833.7,4.99,000.00,029.7,028.5,000.0,038.1,031.3,21.4,0000.1,0012.68,0006.69,0006.19
2023-07-17 09:58:00,SystemResetWarning,0833.7,5.00,000.00,029.7,028.4,000.0,038.1,031.3,21.3,0000.2,0012.69,0006.68,0006.16
2023-07-17 09:59:00,SystemResetWarning,0833.7,5.00,000.00,029.7,026.7,000.0,038.0,031.1,21.3,0000.2,0013.91,0006.65,0006.13
